TimeEDT,TemperatureF,Dew PointF,Humidity,Sea Level PressureIn,VisibilityMPH,Wind Direction,Wind SpeedMPH,Gust SpeedMPH,PrecipitationIn,Events,Conditions,WindDirDegrees,DateUTC
12:58 AM,76.6,73.6,90,30.01,10.0,ESE,10.4,-,N/A,,Clear,120,2013-10-01 04:58:00
1:58 AM,75.9,73.8,93,30.00,10.0,ESE,6.9,-,N/A,,Clear,110,2013-10-01 05:58:00
2:58 AM,75.0,73.8,96,30.00,10.0,ESE,6.9,-,N/A,,Clear,110,2013-10-01 06:58:00
4:58 AM,73.9,73.8,99,29.99,10.0,ESE,8.1,-,N/A,,Clear,110,2013-10-01 08:58:00
5:55 AM,73.4,73.4,100,30.00,10.0,East,6.9,-,N/A,,Clear,100,2013-10-01 09:55:00
6:58 AM,72.9,72.9,100,30.03,10.0,East,6.9,-,N/A,,Clear,90,2013-10-01 10:58:00
7:58 AM,73.6,73.6,100,30.04,10.0,East,8.1,-,N/A,,Clear,100,2013-10-01 11:58:00
8:58 AM,77.9,74.8,90,30.05,10.0,East,10.4,-,N/A,,Clear,80,2013-10-01 12:58:00
9:58 AM,81.0,74.7,81,30.06,10.0,SE,9.2,-,N/A,,Clear,130,2013-10-01 13:58:00
10:58 AM,84.0,75.6,76,30.06,10.0,ESE,8.1,-,N/A,,Clear,110,2013-10-01 14:58:00
11:58 AM,85.8,76.1,73,30.06,10.0,SE,8.1,-,N/A,,Clear,140,2013-10-01 15:58:00
12:03 PM,86.0,75.2,70,30.04,10.0,ESE,5.8,-,N/A,,Light Drizzle,110,2013-10-01 16:03:00
12:07 PM,86.0,75.2,70,30.04,10.0,ESE,6.9,-,N/A,,Partly Cloudy,110,2013-10-01 16:07:00
12:57 PM,87.8,73.4,62,30.03,10.0,ESE,10.4,-,N/A,,Light Drizzle,110,2013-10-01 16:57:00
12:58 PM,87.8,73.4,62,30.04,10.0,ESE,10.4,-,0.00,,Light Drizzle,110,2013-10-01 16:58:00
1:06 PM,87.8,73.4,62,30.03,10.0,East,11.5,-,N/A,,Partly Cloudy,90,2013-10-01 17:06:00
1:58 PM,89.6,72.9,58,30.02,10.0,East,5.8,-,0.00,,Clear,80,2013-10-01 17:58:00
2:58 PM,90.5,71.8,54,30.00,10.0,SE,8.1,16.1,N/A,,Clear,130,2013-10-01 18:58:00
3:58 PM,91.0,71.1,52,29.99,10.0,ENE,9.2,-,N/A,,Clear,70,2013-10-01 19:58:00
4:58 PM,90.7,70.7,52,29.98,10.0,ESE,8.1,-,N/A,,Partly Cloudy,110,2013-10-01 20:58:00
5:58 PM,89.8,69.8,52,29.98,10.0,East,8.1,-,N/A,,Clear,100,2013-10-01 21:58:00
6:58 PM,87.1,71.8,60,29.99,10.0,SE,3.5,-,N/A,,Clear,130,2013-10-01 22:58:00
7:58 PM,82.9,73.4,73,30.01,10.0,ESE,13.8,-,N/A,,Partly Cloudy,110,2013-10-01 23:58:00
8:58 PM,81.0,73.4,78,30.04,10.0,ESE,12.7,-,N/A,,Clear,120,2013-10-02 00:58:00
9:58 PM,79.5,73.8,82,30.05,10.0,ESE,13.8,-,N/A,,Clear,110,2013-10-02 01:58:00
10:58 PM,78.4,73.4,84,30.07,10.0,ESE,12.7,-,N/A,,Clear,110,2013-10-02 02:58:00
11:58 PM,77.2,73.4,88,30.06,10.0,East,11.5,-,N/A,,Clear,100,2013-10-02 03:58:00